Погода в Райгородке

Украина / Луганская область     48°49′10″N   39°04′45″E
темп.,
°C
ветер,
м/с
пор.,
м/с
влажн.,
%
обл.,
%
осадки,
мм/ч
давл.,
гПа
погр.,
м
28 ноября, вс
вс2823:00+6ю499397 0.0 1010177
02:00+8ю489499 0.0 1009219
05:00+8ююз389497 0.0 1009208
08:00+7ю34950 0.0 101089
11:00+11ююз35730 0.0 1010417
14:00+13ю356868 0.0 1010237
17:00+9ююв3388100 0.0 101136
20:00+8юв3694100 0.0 1010110
29 ноября, пн
пн2923:00+10юв51195100 2.4 1008364
02:00+11ююв81594100 6.4 1006854
05:00+11ю81492100 0.7 1005767
08:00+11ююз71493100 0.8 1006554
11:00+12ююз81582100 0.0 1006847
14:00+12ю71781100 0.2 1003837
17:00+13ю91885100 2.1 1001927
20:00+15ю132268100 2.4 996956
30 ноября, вт
вт3023:00+14ююз122270100 1.4 993949
02:00+12ююз132086100 1.5 9931154
05:00+12зюз1118707 0.3 9951215
08:00+7зюз8146659 0.3 1000835
11:00+8зюз914530 0.0 1001908
14:00+8зюз611496 0.0 1001889
17:00+6зюз3561100 0.0 1000135
20:00+5сз1166100 0.0 99814
1 декабря, ср
ср123:00+3ссз5671100 0.3 996572
02:000ссз51098100 4.4 996557
05:00+2зсз61077100 1.8 998780
08:000з6128333 1.8 1002708
11:00+1зюз71174100 0.0 1004971
14:00+2юз61168100 0.0 10031107
17:00+1юз71496100 0.4 1002963
20:00+2зюз7138787 0.9 1003890
2 декабря, чт
чт223:00+1з6128483 0.0 1005699
02:00+2з71068100 0.0 1008893
05:00+2з6966100 0.0 1010679
08:00+2ююз5107976 0.0 1011487
11:00+4юз6127194 0.0 1011601
14:00+5ююз7157796 0.0 1011649
17:00+4ююз716875 0.0 1012506
20:00+5юз7168171 0.0 1012505